Time,TemperatureF,DewpointF,PressureIn,WindDirection,WindDirectionDegrees,WindSpeedMPH,WindSpeedGustMPH,Humidity,HourlyPrecipIn,Conditions,Clouds,dailyrainin,SoftwareType,DateUTC
2013-07-08 08:02:00,71.0,67.0,29.95,SSW,203,0.0,0.0,88,0.00,,,0.14,,2013-07-08 12:02:00,
2013-07-08 08:12:00,71.0,67.0,29.95,SSW,203,0.0,0.0,88,0.00,,,0.14,,2013-07-08 12:12:00,
2013-07-08 08:22:00,72.0,68.0,29.96,SSW,203,0.0,0.0,88,0.00,,,0.10,,2013-07-08 12:22:00,
2013-07-08 08:34:00,72.0,68.0,29.96,SSE,158,0.0,0.0,88,0.00,,,0.10,,2013-07-08 12:34:00,
2013-07-08 08:43:00,72.0,68.0,29.96,SSE,158,0.0,0.0,88,0.00,,,0.10,,2013-07-08 12:43:00,
2013-07-08 08:53:00,72.0,68.0,29.96,SSE,158,0.0,0.0,88,0.00,,,0.10,,2013-07-08 12:53:00,
2013-07-08 09:02:00,73.0,69.0,29.96,SSE,158,0.0,0.0,88,0.00,,,0.10,,2013-07-08 13:02:00,
2013-07-08 09:11:00,73.0,69.0,29.96,SSE,158,0.0,0.0,88,0.00,,,0.10,,2013-07-08 13:11:00,
2013-07-08 09:22:00,73.0,69.0,29.95,South,180,0.0,0.0,87,0.00,,,0.08,,2013-07-08 13:22:00,
2013-07-08 09:42:00,74.0,70.0,29.95,South,180,1.0,0.0,87,0.00,,,0.06,,2013-07-08 13:42:00,
2013-07-08 09:53:00,74.0,70.0,29.94,South,180,0.0,0.0,87,0.00,,,0.04,,2013-07-08 13:53:00,
2013-07-08 10:02:00,74.0,70.0,29.94,South,180,0.0,0.0,87,0.00,,,0.04,,2013-07-08 14:02:00,
2013-07-08 10:12:00,75.0,71.0,29.94,SSW,203,0.0,0.0,86,0.00,,,0.02,,2013-07-08 14:12:00,
2013-07-08 10:23:00,76.0,72.0,29.95,South,180,0.0,0.0,86,0.00,,,0.00,,2013-07-08 14:23:00,
2013-07-08 10:34:00,76.0,72.0,29.95,South,180,0.0,0.0,86,0.00,,,0.00,,2013-07-08 14:34:00,
2013-07-08 10:43:00,77.0,72.0,29.95,SSE,158,0.0,3.0,85,0.00,,,0.00,,2013-07-08 14:43:00,
2013-07-08 10:53:00,78.0,73.0,29.95,SSW,203,0.0,0.0,84,0.00,,,0.00,,2013-07-08 14:53:00,
2013-07-08 11:02:00,78.0,73.0,29.95,SSW,203,0.0,0.0,84,0.00,,,0.00,,2013-07-08 15:02:00,
2013-07-08 11:11:00,78.0,72.0,29.94,SSE,158,0.0,0.0,83,0.00,,,0.00,,2013-07-08 15:11:00,
2013-07-08 11:33:00,79.0,73.0,29.94,SSE,158,2.0,2.0,82,0.00,,,0.00,,2013-07-08 15:33:00,
2013-07-08 11:43:00,80.0,74.0,29.94,SSE,158,0.0,0.0,81,0.00,,,0.00,,2013-07-08 15:43:00,
2013-07-08 11:53:00,81.0,75.0,29.94,South,180,0.0,0.0,81,0.00,,,0.00,,2013-07-08 15:53:00,
2013-07-08 12:01:00,81.0,75.0,29.94,South,180,0.0,0.0,81,0.00,,,0.00,,2013-07-08 16:01:00,
2013-07-08 12:22:00,81.0,74.0,29.95,SW,225,0.0,0.0,79,0.00,,,0.00,,2013-07-08 16:22:00,
2013-07-08 12:43:00,81.0,74.0,29.96,SW,225,0.0,3.0,79,0.00,,,0.00,,2013-07-08 16:43:00,
2013-07-08 12:57:00,81.0,74.0,29.96,SW,225,2.0,3.0,79,0.00,,,0.00,,2013-07-08 16:57:00,
2013-07-08 13:07:00,81.0,74.0,29.96,SW,225,2.0,3.0,79,0.00,,,0.00,,2013-07-08 17:07:00,
2013-07-08 13:14:00,81.0,73.0,29.95,SW,225,0.0,0.0,78,0.00,,,0.00,,2013-07-08 17:14:00,
2013-07-08 13:37:00,81.0,73.0,29.95,WSW,248,0.0,2.0,78,0.00,,,0.00,,2013-07-08 17:37:00,
2013-07-08 13:46:00,81.0,73.0,29.94,SW,225,0.0,0.0,78,0.00,,,0.00,,2013-07-08 17:46:00,
2013-07-08 13:55:00,80.0,72.0,29.94,SW,225,0.0,1.0,78,0.00,,,0.00,,2013-07-08 17:55:00,
2013-07-08 14:09:00,80.0,72.0,29.94,SW,225,0.0,1.0,78,0.00,,,0.00,,2013-07-08 18:09:00,
2013-07-08 14:43:00,80.0,73.0,29.94,WSW,248,0.0,0.0,79,0.00,,,0.00,,2013-07-08 18:43:00,
2013-07-08 15:00:00,80.0,72.0,29.94,WNW,293,0.0,0.0,76,0.00,,,0.00,,2013-07-08 19:00:00,
2013-07-08 15:19:00,80.0,71.0,29.94,West,270,0.0,7.0,74,0.00,,,0.00,,2013-07-08 19:19:00,
2013-07-08 15:33:00,80.0,71.0,29.94,West,270,1.0,3.0,73,0.00,,,0.00,,2013-07-08 19:33:00,
2013-07-08 15:38:00,79.0,70.0,29.94,WSW,248,0.0,0.0,74,0.00,,,0.00,,2013-07-08 19:38:00,
2013-07-08 16:06:00,79.0,70.0,29.93,West,270,0.0,0.0,75,0.00,,,0.00,,2013-07-08 20:06:00,
2013-07-08 16:13:00,78.0,70.0,29.93,SW,225,2.0,3.0,76,0.00,,,0.00,,2013-07-08 20:13:00,
2013-07-08 16:22:00,78.0,70.0,29.93,SW,225,2.0,3.0,76,0.00,,,0.00,,2013-07-08 20:22:00,
2013-07-08 16:43:00,77.0,69.0,29.93,South,180,2.0,7.0,76,0.00,,,0.00,,2013-07-08 20:43:00,
2013-07-08 16:51:00,77.0,69.0,29.93,South,180,2.0,7.0,76,0.00,,,0.00,,2013-07-08 20:51:00,
2013-07-08 17:14:00,75.0,67.0,29.94,SSW,203,1.0,6.0,77,0.00,,,0.00,,2013-07-08 21:14:00,
2013-07-08 17:21:00,75.0,67.0,29.94,SSW,203,1.0,6.0,77,0.00,,,0.00,,2013-07-08 21:21:00,
2013-07-08 17:42:00,72.0,66.0,29.93,SW,225,0.0,0.0,81,0.02,,,0.02,,2013-07-08 21:42:00,
2013-07-08 17:52:00,72.0,66.0,29.93,SW,225,0.0,0.0,81,0.02,,,0.02,,2013-07-08 21:52:00,
2013-07-08 18:16:00,73.0,68.0,29.92,South,180,0.0,0.0,83,0.02,,,0.02,,2013-07-08 22:16:00,
2013-07-08 18:23:00,73.0,68.0,29.92,South,180,0.0,0.0,83,0.02,,,0.02,,2013-07-08 22:23:00,
2013-07-08 18:32:00,73.0,68.0,29.92,South,180,0.0,0.0,84,0.00,,,0.02,,2013-07-08 22:32:00,
2013-07-08 18:43:00,73.0,68.0,29.92,South,180,0.0,0.0,84,0.02,,,0.02,,2013-07-08 22:43:00,
2013-07-08 18:54:00,73.0,68.0,29.92,South,180,0.0,0.0,84,0.02,,,0.02,,2013-07-08 22:54:00,
2013-07-08 19:14:00,73.0,68.0,29.92,South,180,0.0,0.0,85,0.02,,,0.04,,2013-07-08 23:14:00,
2013-07-08 19:22:00,73.0,68.0,29.92,South,180,0.0,0.0,85,0.02,,,0.04,,2013-07-08 23:22:00,
2013-07-08 19:44:00,74.0,70.0,29.92,South,180,0.0,0.0,86,0.00,,,0.04,,2013-07-08 23:44:00,
2013-07-08 19:54:00,74.0,70.0,29.92,South,180,0.0,0.0,86,0.00,,,0.04,,2013-07-08 23:54:00,
2013-07-08 20:09:00,74.0,70.0,29.92,South,180,0.0,0.0,87,0.00,,,0.04,,2013-07-09 00:09:00,
2013-07-08 20:15:00,74.0,70.0,29.92,WSW,248,0.0,0.0,87,0.00,,,0.04,,2013-07-09 00:15:00,
2013-07-08 20:42:00,75.0,71.0,29.92,SW,225,0.0,0.0,86,0.00,,,0.04,,2013-07-09 00:42:00,
2013-07-08 20:54:00,75.0,71.0,29.92,SW,225,0.0,0.0,86,0.00,,,0.04,,2013-07-09 00:54:00,
2013-07-08 21:09:00,75.0,71.0,29.92,South,180,0.0,0.0,86,0.00,,,0.04,,2013-07-09 01:09:00,
2013-07-08 21:22:00,75.0,71.0,29.92,SW,225,0.0,0.0,86,0.00,,,0.04,,2013-07-09 01:22:00,
2013-07-08 21:43:00,74.0,70.0,29.91,SSW,203,0.0,0.0,86,0.00,,,0.04,,2013-07-09 01:43:00,
2013-07-08 21:54:00,74.0,70.0,29.92,SSW,203,0.0,0.0,86,0.00,,,0.04,,2013-07-09 01:54:00,
2013-07-08 22:00:00,74.0,70.0,29.92,SSW,203,0.0,0.0,86,0.00,,,0.04,,2013-07-09 02:00:00,
2013-07-08 22:26:00,-999.0,-99.9,29.92,SSW,203,0.0,0.0,86,0.00,,,0.04,,2013-07-09 02:26:00,
2013-07-08 23:10:00,73.0,69.0,29.93,SSW,203,0.0,0.0,87,0.00,,,0.04,,2013-07-09 03:10:00,
2013-07-08 23:24:00,73.0,69.0,29.93,South,180,0.0,0.0,88,0.00,,,0.04,,2013-07-09 03:24:00,
2013-07-08 23:32:00,73.0,69.0,29.93,South,180,0.0,0.0,88,0.00,,,0.04,,2013-07-09 03:32:00,